KF5NXR Weather Reports


time (UTC)temp
C
wind
direction
speed
KPH
gust
KPH
rain 1hr
cm
rain 24hr
cm
rain mn
cm
humidity
%
barometer
mb
20260506121515 12 135 0.0 1.6 0.00 0.00 0.00 85 1016.7
20260506120014 12 137 0.0 0.0 0.00 0.00 0.00 84 1016.2
20260506114511 12 138 0.0 1.6 0.00 0.00 0.00 84 1015.8
20260506113009 12 143 0.0 1.6 0.00 0.00 0.00 83 1015.9
20260506111507 12 145 0.0 1.6 0.00 0.00 0.00 81 1015.6
20260506110004 12 147 0.0 0.0 0.00 0.00 0.00 80 1015.2
20260506104504 12 147 0.0 0.0 0.00 0.00 0.00 80 1014.8
20260506103103 13 148 0.0 0.0 0.00 0.00 0.00 80 1014.7
20260506101558 13 142 0.0 0.0 0.00 0.00 0.00 79 1014.5
20260506100056 13 148 0.0 0.0 0.00 0.00 0.00 79 1014.4
20260506094555 13 150 0.0 0.0 0.00 0.00 0.00 78 1014.2
20260506093055 13 151 0.0 0.0 0.00 0.00 0.00 79 1014.1
20260506091555 13 153 0.0 0.0 0.00 0.00 0.00 79 1014.0
20260506090050 13 151 0.0 0.0 0.00 0.00 0.00 79 1013.6
20260506084550 13 151 0.0 0.0 0.00 0.00 0.00 80 1013.3
20260506083049 13 153 0.0 0.0 0.00 0.00 0.00 79 1013.2
20260506081546 14 153 0.0 0.0 0.00 0.00 0.00 79 1013.3
20260506073041 15 138 0.0 0.0 0.00 0.00 0.00 80 1013.4
20260506071540 15 151 0.0 0.0 0.00 0.00 0.00 81 1013.5
20260506061534 15 160 0.0 0.0 0.00 0.00 0.00 80 1013.4
20260506044526 16 165 0.0 0.0 0.00 0.00 0.00 81 1012.8
20260506043018 17 166 0.0 1.6 0.00 0.00 0.00 80 1012.5
20260506041515 18 175 0.0 1.6 0.00 0.00 0.00 80 1012.5
20260506040013 19 180 0.0 1.6 0.00 0.00 0.00 80 1012.3
20260506034506 20 190 0.0 0.0 0.00 0.00 0.00 80 1012.0
20260506033046 21 193 0.0 0.0 0.00 0.00 0.00 80 1011.7
20260506031549 21 197 0.0 0.0 0.00 0.00 0.00 80 1011.5
20260506030043 22 208 0.0 1.6 0.00 0.00 0.00 80 1011.0
20260506024545 22 212 0.0 3.2 0.00 0.00 0.00 78 1010.3
20260506023039 23 249 0.0 0.0 0.00 0.00 0.00 78 1009.8
20260506021610 23 270 0.0 0.0 0.00 0.00 0.00 79 1009.5
20260506020037 24 270 0.0 0.0 0.00 0.00 0.00 81 1009.5
20260506014538 25 270 0.0 0.0 0.00 0.00 0.00 86 1009.0
20260506013038 25 270 0.0 0.0 0.00 0.00 0.00 86 1009.3
20260506011544 25 270 0.0 0.0 0.00 0.00 0.00 85 1008.7
20260506010046 26 270 0.0 0.0 0.00 0.00 0.00 83 1008.6
20260506004535 26 271 0.0 0.0 0.00 0.00 0.00 82 1008.8
20260506003035 26 274 0.0 1.6 0.00 0.00 0.00 80 1008.5
20260506001534 26 274 0.0 1.6 0.00 0.00 0.00 79 1008.0
20260506000037 27 270 0.0 1.6 0.00 0.00 0.00 78 1008.0
20260505234557 27 272 0.0 3.2 0.00 0.00 0.00 77 1008.0
20260505233034 27 277 0.0 11.3 0.00 0.00 0.00 77 1007.8
20260505231532 28 277 0.0 11.3 0.00 0.00 0.00 76 1007.7
20260505230032 28 271 0.0 9.7 0.00 0.00 0.00 76 1007.5
20260505224533 28 274 0.0 9.7 0.00 0.00 0.00 75 1007.3
20260505223030 28 268 0.0 16.1 0.00 0.00 0.00 74 1007.5
20260505221529 28 272 0.0 14.5 0.00 0.00 0.00 73 1007.7
20260505220027 29 274 1.6 14.5 0.00 0.00 0.00 72 1007.5
20260505214527 30 273 0.0 9.7 0.00 0.00 0.00 71 1007.7
20260505213023 30 254 0.0 11.3 0.00 0.00 0.00 71 1007.7
20260505211535 30 271 0.0 4.8 0.00 0.00 0.00 70 1007.9
20260505210020 30 270 0.0 12.9 0.00 0.00 0.00 70 1008.0
20260505204518 29 258 1.6 16.1 0.00 0.00 0.00 72 1008.2
20260505203017 29 266 1.6 14.5 0.00 0.00 0.00 72 1008.2
20260505201516 28 268 0.0 16.1 0.00 0.00 0.00 71 1008.3
20260505200016 29 272 0.0 9.7 0.00 0.00 0.00 71 1008.4
20260505194512 28 288 3.2 20.9 0.00 0.00 0.00 73 1008.5
20260505193012 28 265 1.6 14.5 0.00 0.00 0.00 73 1008.4
20260505191511 27 264 0.0 16.1 0.00 0.00 0.00 74 1008.6
20260505190013 27 260 4.8 22.5 0.00 0.00 0.00 73 1008.8
20260505184518 27 264 0.0 20.9 0.00 0.00 0.00 75 1008.8
20260505183009 27 254 3.2 24.1 0.00 0.00 0.00 73 1008.8
20260505181509 28 272 6.4 25.7 0.00 0.00 0.00 72 1008.7
20260505180007 28 276 1.6 22.5 0.00 0.00 0.00 71 1009.0
20260505174506 28 266 4.8 20.9 0.00 0.00 0.00 70 1008.9
20260505173002 28 270 0.0 11.3 0.00 0.00 0.00 72 1009.1
20260505171559 27 278 1.6 19.3 0.00 0.00 0.00 74 1009.2
20260505170156 27 265 1.6 19.3 0.00 0.00 0.00 74 1009.2
20260505164556 27 271 0.0 20.9 0.00 0.00 0.00 74 1009.2
20260505163053 26 264 6.4 25.7 0.00 0.00 0.00 75 1008.9
20260505161551 26 270 1.6 24.1 0.00 0.00 0.00 77 1008.8
20260505153049 24 256 6.4 24.1 0.00 0.00 0.00 81 1009.0
20260505151545 24 261 1.6 37.0 0.00 0.00 0.00 81 1009.0
20260505124520 21 272 0.0 9.7 0.00 0.00 0.00 88 1008.7
20260505123021 21 270 1.6 20.9 0.00 0.00 0.00 88 1008.7